Location: Knowlton
(51.2333°N, 1.2667°E)
Time: 04:53:12
(UTC+00:00)

Cosmos 1862 - Pass Details

Date: 18 April 2021
Orbit: 536 x 557 km, 82.5° (Epoch: 06 May)

Event Time Altitude Azimuth Distance (km) Brightness Sun altitude
Rises 21:56:05 0° 350° (N) 2,703 8.0 -22.6°
Reaches altitude 10° 21:58:15 10° 352° (N) 1,807 6.9 -22.7°
Enters shadow 22:01:58 73° 37° (NE) 569 3.3 -23.0°
